Notices

What's New in latest Release from April 7th, 2021:

- Updated Glossary, including Speed of Maximum Gust, and Total Hourly Precipitation

- Updated national and regional climate services offices contacts and prices information

- Addition of station inventory lists for 1981-2010, 1971-2000, and 1961-1990 Normals.

If you haven't already, please take our survey and provide feedback about our website: https://eccc.sondage-survey.ca/f/LanguageSelection.aspx?s=442ca660-fcf1-47c0-95a9-59707d6fd709

Hourly Data Report for May 22, 2020

MIRAMICHI RCS
NEW BRUNSWICK
Current Station Operator: ECCC - MSC

47°00'34.000" N
65°27'54.000" W
33.00 m
8100989
71744
ACQ

Download Data

Hourly Data (May 2020)
Hourly Data Report for May 22, 2020
TIME
LST
Temp Definition
°C
Dew Point Definition
°C
Rel Hum Definition
%
Precip. Amount Definition
mm

Wind Dir Definition
10's deg

Wind Spd Definition
km/h
Visibility Definition
km
Stn Press Definition
kPa
Hmdx Definition


Wind Chill Definition


Weather Definition


00:00 19.7 7.0 44 LegendMM 24 13   100.55     LegendNANA
01:00 17.8 4.2 40 LegendMM 20 10   100.48     LegendNANA
02:00 19.7 7.3 45 LegendMM 24 19   100.42     LegendNANA
03:00 19.7 7.5 45 LegendMM 25 16   100.38     LegendNANA
04:00 18.9 6.1 43 LegendMM 25 14   100.35     LegendNANA
05:00 17.8 5.8 45 LegendMM 25 11   100.38     LegendNANA
06:00 17.0 5.3 46 LegendMM 24 11   100.41     LegendNANA
07:00 18.1 8.4 53 LegendMM 25 8   100.45     LegendNANA
08:00 19.9 7.4 44 LegendMM 30 18   100.51     LegendNANA
09:00 20.7 5.2 36 LegendMM 31 18   100.47     LegendNANA
10:00 20.8 5.0 36 LegendMM 28 31   100.47     LegendNANA
11:00 22.0 4.7 32 LegendMM 29 25   100.46     LegendNANA
12:00 22.6 0.8 24 LegendMM 29 28   100.41     LegendNANA
13:00 22.9 -1.1 20 LegendMM 31 22   100.41     LegendNANA
14:00 23.3 2.8 26 LegendMM 31 24   100.43     LegendNANA
15:00 23.3 3.7 28 LegendMM 31 27   100.43     LegendNANA
16:00 23.2 3.2 27 LegendMM 30 22   100.47     LegendNANA
17:00 22.9 8.4 39 LegendMM 32 14   100.52     LegendNANA
18:00 16.3 9.0 62 LegendMM 8 27   100.61     LegendNANA
19:00 12.8 0.8 44 LegendMM 9 20   100.73     LegendNANA
20:00 9.9 1.1 54 LegendMM 10 15   100.83     LegendNANA
21:00 7.6 0.8 62 LegendMM 9 11   100.95     LegendNANA
22:00 6.8 -0.2 61 LegendMM 13 7   101.01     LegendNANA
23:00 5.9 -0.9 62 LegendMM 11 4   101.10     LegendNANA

Notes on Data Quality.

Legend

  • E = Estimated
  • M = Missing
  • NA = Not Available*
  • [empty] = Indicates an unobserved value
Date modified: